Weather History for Rexburg, ID

Change the Weather History Date:

Thursday, March 20, 2014

  Actual Average Record
Temperature  
Mean Temperature 40 °F 36 °F  
Max Temperature 53 °F 47 °F 63 °F (1999)
Min Temperature 26 °F 26 °F 10 °F (1983)
Degree Days  
Heating Degree Days 25 29  
Month to date heating degree days 559 663  
Since 1 July heating degree days 6374 6636  
Cooling Degree Days 0 0  
Month to date cooling degree days 0 0  
Year to date cooling degree days 0 0  
Moisture  
Dew Point 11 °F    
Average Humidity 31    
Maximum Humidity 47    
Minimum Humidity 14    
Precipitation  
Precipitation 0.00 in 0.04 in 0.31 in (2013)
Month to date precipitation 0.50 0.59  
Year to date precipitation 1.90 2.16  
Sea Level Pressure  
Sea Level Pressure 29.93 in    
Wind  
Wind Speed 17 mph (SW)    
Max Wind Speed 36 mph    
Max Gust Speed 47 mph    
Visibility 10 miles    
Events      
T = Trace of Precipitation, MM = Missing Value Source: NWS Daily Summary

Daily Weather History Graph

Daily Weather History Graph

Search for Another Location

Airport:

Trip Planner

Search our weather history database for the weather conditions in past years. The results will help you decide how hot, cold, wet, or windy it might be!

Date:

Astronomy

Mar. 20, 2014 Rise Set
Actual Time 7:30 AM MDT 7:39 PM MDT
Civil Twilight 7:01 AM MDT 8:08 PM MDT
Nautical Twilight 6:27 AM MDT 8:42 PM MDT
Astronomical Twilight 5:53 AM MDT 9:16 PM MDT
Moon No Moon Rise 9:31 AM MDT (3/20)
Length of Visible Light 13h 06m
Length of Day
12h 09m
Waning Gibbous, 83% of the Moon is Illuminated
Mar 20
Waning Gibbous
Mar 23
Last Quarter
Mar 30
New
Apr 7
First Quarter
Apr 15
Full

Hourly Weather History & Observations

Time (MDT) Temp. Windchill Dew Point Humidity Pressure Visibility Wind Dir Wind Speed Gust Speed Precip Events Conditions
12:53 AM 37.0 °F 28.1 °F 15.1 °F 41% 30.00 in 10.0 mi South 15.0 mph 26.5 mph N/A   Clear
1:53 AM 37.0 °F 27.0 °F 14.0 °F 39% 29.98 in 10.0 mi South 18.4 mph 26.5 mph N/A   Clear
2:53 AM 36.0 °F 26.3 °F 14.0 °F 41% 29.98 in 10.0 mi South 16.1 mph 23.0 mph N/A   Clear
3:53 AM 35.1 °F 25.5 °F 14.0 °F 42% 29.96 in 10.0 mi South 15.0 mph - N/A   Clear
4:53 AM 36.0 °F 26.7 °F 12.9 °F 39% 29.94 in 10.0 mi South 15.0 mph - N/A   Clear
5:53 AM 37.0 °F 28.9 °F 12.0 °F 36% 29.92 in 10.0 mi South 12.7 mph - N/A   Clear
6:53 AM 35.1 °F 28.6 °F 14.0 °F 42% 29.92 in 10.0 mi SW 8.1 mph - N/A   Clear
7:53 AM 33.1 °F 28.7 °F 15.1 °F 48% 29.93 in 10.0 mi West 4.6 mph - N/A   Clear
8:53 AM 39.0 °F 28.8 °F 14.0 °F 36% 29.92 in 10.0 mi SW 21.9 mph 32.2 mph N/A   Clear
9:53 AM 39.0 °F 27.8 °F 17.1 °F 41% 29.92 in 10.0 mi SW 26.5 mph 36.8 mph N/A   Clear
10:53 AM 42.1 °F 30.8 °F 16.0 °F 35% 29.91 in 10.0 mi SW 33.4 mph 42.6 mph N/A   Clear
11:53 AM 46.9 °F - 10.9 °F 23% 29.88 in 10.0 mi SW 31.1 mph 42.6 mph N/A   Clear
12:53 PM 50.0 °F - 7.0 °F 18% 29.86 in 10.0 mi SW 29.9 mph 43.7 mph N/A   Clear
1:53 PM 51.1 °F - 10.9 °F 20% 29.86 in 10.0 mi SW 29.9 mph 39.1 mph N/A   Clear
2:53 PM 52.0 °F - 10.9 °F 19% 29.83 in 10.0 mi SW 29.9 mph 42.6 mph N/A   Clear
3:53 PM 52.0 °F - 7.0 °F 16% 29.82 in 10.0 mi SW 33.4 mph 43.7 mph N/A   Clear
4:53 PM 52.0 °F - 5.0 °F 15% 29.82 in 10.0 mi SW 26.5 mph 38.0 mph N/A   Clear
5:53 PM 50.0 °F - 9.0 °F 19% 29.85 in 10.0 mi North 13.8 mph 35.7 mph N/A   Mostly Cloudy
5:58 PM 48.0 °F - 12.0 °F 24% 29.86 in 10.0 mi North 11.5 mph 28.8 mph N/A   Mostly Cloudy
6:53 PM 46.0 °F 41.9 °F 12.0 °F 25% 29.91 in 10.0 mi North 8.1 mph - N/A   Scattered Clouds
7:53 PM 37.9 °F 31.5 °F 8.1 °F 29% 29.98 in 10.0 mi NE 9.2 mph - N/A   Clear
8:53 PM 35.1 °F 27.9 °F 7.0 °F 31% 30.00 in 10.0 mi NE 9.2 mph - N/A   Clear
9:53 PM 32.0 °F 25.6 °F 7.0 °F 35% 30.05 in 10.0 mi North 6.9 mph - N/A   Clear
10:53 PM 30.9 °F 22.2 °F 5.0 °F 33% 30.07 in 10.0 mi North 10.4 mph - N/A   Clear
11:53 PM 28.0 °F 21.7 °F 5.0 °F 38% 30.09 in 10.0 mi North 5.8 mph - N/A   Scattered Clouds